This is the latest recevied weather packets stored in our database for station/object DL9SEC-13. If no packets are shown the sender has not sent any weather packets the latest 10 day(s).
| Time | Temp. | Humidity | Pressure | Rain* | Wind** | Luminosity | Snow |
|---|---|---|---|---|---|---|---|
| 1777859703 | 12.78° C | 64% | 1017.9 hPa | 0 mm | - | - | - |
| 1777858802 | 12.78° C | 65% | 1017.9 hPa | 0 mm | - | - | - |
| 1777857903 | 12.22° C | 66% | 1017.9 hPa | 0 mm | - | - | - |
| 1777857003 | 12.22° C | 67% | 1017.9 hPa | 0 mm | - | - | - |
| 1777856102 | 12.22° C | 67% | 1018 hPa | 0 mm | - | - | - |
| 1777855203 | 12.22° C | 67% | 1018.1 hPa | 0 mm | - | - | - |
| 1777854302 | 12.22° C | 68% | 1018 hPa | 0 mm | - | - | - |
| 1777853403 | 12.22° C | 68% | 1018.3 hPa | 0 mm | - | - | - |
| 1777852503 | 12.22° C | 68% | 1018.3 hPa | 0 mm | - | - | - |
| 1777851603 | 12.22° C | 68% | 1018.4 hPa | 0 mm | - | - | - |
| 1777850704 | 12.78° C | 66% | 1018.5 hPa | 0 mm | - | - | - |
| 1777849803 | 12.78° C | 63% | 1018.5 hPa | 0 mm | - | - | - |
| 1777848902 | 12.78° C | 63% | 1018.6 hPa | 0 mm | - | - | - |
| 1777848003 | 13.33° C | 63% | 1018.6 hPa | 0 mm | - | - | - |
| 1777847103 | 13.33° C | 63% | 1018.5 hPa | 0 mm | - | - | - |
| 1777846203 | 13.33° C | 61% | 1018.4 hPa | 0 mm | - | - | - |
| 1777845303 | 13.89° C | 60% | 1018.4 hPa | 0 mm | - | - | - |
| 1777844403 | 13.89° C | 59% | 1018.4 hPa | 0 mm | - | - | - |
| 1777843503 | 14.44° C | 59% | 1018.3 hPa | 0 mm | - | - | - |
| 1777842604 | 15° C | 57% | 1018.2 hPa | 0 mm | - | - | - |
| 1777841704 | 15° C | 53% | 1018 hPa | 0 mm | - | - | - |
| 1777840803 | 15.56° C | 51% | 1017.9 hPa | 0 mm | - | - | - |
| 1777839903 | 16.67° C | 49% | 1017.9 hPa | 0 mm | - | - | - |
| 1777839003 | 17.22° C | 46% | 1017.6 hPa | 0 mm | - | - | - |
| 1777838103 | 17.78° C | 44% | 1017.5 hPa | 0 mm | - | - | - |
* Rain latest hour (hover to see other rain measurements)
** Current wind speed in m/s (hover to see current wind gust speed)